Location: Unspecified
(50.1700°N, 6.8600°E)
Time: 12:05:28
(UTC+00:00)

Lacrosse 5 rocket - Pass Details

Date: 24 January 2019
Orbit: 469 x 630 km, 57.0° (Epoch: 06 February)

Event Time Altitude Azimuth Distance (km) Brightness Sun altitude
Exits shadow 05:42:33 25° 266° (W) 1,213 2.5 -15.0°
Maximum altitude 05:44:56 56° 336° (NNW) 716 1.6 -14.6°
Drops below altitude 10° 05:49:25 10° 55° (NE) 1,986 4.8 -13.9°
Sets 05:51:47 0° 60° (ENE) 2,908 5.8 -13.5°
